Presure
135 244 150 239 134 136 259 172 264 174 257 187 201 226 207 184 174 240 222 241 251 240 237 232 239 172 182 203 195 186 133 214 197 186 215 204 189 195
237 238 242 133 255 262 194 211 266 248 177 258 276 243 182 250 257 244 207 197 235 235 248 239 217 240 232 224 212 189 168 204 209 195 164 208 158 138
251 204 274 275 269 238 279 179 146 256 202 152 269 242 177 233 228 230 209 203 237 232 238 234 247 234 221 180 220 186 215 183 191 133 134 200 133 202
267 189 286 292 283 271 212 270 283 269 283 269 133 125 174 254 238 172 248 245 256 243 251 235 237 236 241 237 222 193 221 203 211 117 110 186 89 91
321 289 279 333 320 301 237 293 133 132 225 172 148 149 180 230 191 229 235 234 248 234 271 257 241 235 237 227 243 225 224 218 160 124 96 116 197 121
389 397 375 378 349 343 345 343 343 341 342 344 349 140 196 142 197 219 230 239 174 221 251 242 246 256 245 226 214 248 224 228 200 117 218 128 117 165
378 361 350 354 393 389 351 326 227 305 295 346 221 347 302 325 338 333 175 246 180 209 176 239 210 243 276 242 239 218 220 225 223 220 213 245 219 120
543 431 416 415 425 413 411 404 345 349 231 371 263 146 364 348 345 343 159 169 162 209 228 189 280 266 277 271 240 237 239 197 234 226 222 239 210 211
501 523 517 508 500 479 415 396 385 393 395 392 389 359 289 135 334 343 239 278 223 243 175 241 200 199 296 239 260 248 236 238 246 219 247 234 229 241
462 479 497 485 479 473 467 349 452 402 398 244 372 386 371 369 333 349 265 144 248 279 217 247 235 220 221 258 257 293 237 243 235 247 223 222 218 220
449 446 433 472 458 453 457 455 454 446 403 395 406 392 371 125 362 279 186 161 337 243 314 266 240 255 246 245 268 286 289 295 243 253 236 236 234 236
450 426 478 463 448 436 431 439 440 437 443 431 417 412 396 368 353 364 205 333 144 334 323 311 129 249 242 250 266 277 267 258 290 256 240 246 241 245
427 424 484 462 447 435 421 423 426 430 432 438 443 422 394 390 399 288 342 350 347 273 310 263 261 257 214 243 219 240 265 258 273 251 291 284 259 246
412 392 496 467 451 436 423 414 410 413 420 435 454 456 447 390 369 354 360 364 335 348 260 321 323 282 262 199 297 298 303 288 280 255 265 272 280 282
392 490 443 493 466 448 425 409 400 401 407 413 428 464 468 477 387 405 379 394 352 340 177 134 136 151 263 169 315 255 310 298 291 281 259 259 255 270
387 392 429 502 478 463 439 411 401 399 403 411 418 435 461 472 482 385 422 397 377 334 327 342 270 308 318 328 330 315 309 305 291 276 254 260 229 265
401 386 391 422 482 447 436 415 403 402 408 412 420 427 435 468 486 492 402 409 401 357 324 326 318 274 231 327 319 323 314 310 294 291 255 260 275 263
439 401 381 387 402 418 420 417 415 414 419 428 432 421 426 432 471 486 498 394 405 389 338 327 318 323 305 328 146 164 192 324 286 285 281 277 268 268
421 440 100 309 381 390 398 404 403 403 404 403 412 422 427 430 459 475 487 499 401 398 375 336 326 321 321 316 311 300 323 305 315 303 286 289 267 258
429 438 406 397 396 231 384 385 388 393 403 409 430 424 428 446 457 468 482 493 374 396 389 360 330 316 317 301 295 316 335 308 313 299 278 290 263 260
428 429 426 407 393 392 401 407 389 294 395 398 403 407 423 435 447 466 479 487 501 383 413 357 333 314 321 293 288 312 153 230 294 310 299 295 264 263
426 423 422 418 410 400 400 406 412 399 398 396 108 409 421 432 444 468 485 485 494 366 409 394 341 316 320 301 168 172 301 323 184 311 297 289 256 257
443 444 438 428 423 415 417 417 420 420 396 397 407 416 421 432 124 471 472 477 485 436 401 400 357 317 321 291 271 329 284 338 318 290 299 288 266 266
Wind_Speed
69 102 75 96 64 63 97 74 87 60 79 73 76 86 82 73 72 89 78 89 96 98 98 96 96 82 78 83 79 75 55 85 81 81 78 70 75 74
108 108 108 68 106 105 88 79 94 81 65 91 93 85 77 86 88 94 74 73 90 95 104 103 89 105 103 96 91 90 77 83 81 73 59 71 58 43
122 104 125 119 115 101 107 69 63 93 75 50 94 89 67 99 96 87 84 78 97 93 101 100 107 107 92 88 101 87 88 82 83 52 53 76 46 79
134 103 127 124 121 113 86 104 106 99 98 91 65 59 73 96 104 73 104 109 103 106 107 100 103 107 106 109 95 91 93 83 84 48 41 78 30 29
134 124 115 126 121 118 89 109 56 52 78 68 61 47 67 110 76 104 107 104 111 97 103 107 105 103 109 99 108 96 98 90 71 57 38 45 81 48
116 113 113 114 116 115 113 111 110 107 104 102 101 48 67 61 92 84 109 111 67 97 109 101 99 112 113 100 83 103 96 101 89 54 89 56 53 71
109 111 112 109 107 107 102 98 101 96 93 103 84 101 96 93 93 94 62 119 68 86 64 95 84 95 113 114 111 88 87 94 90 88 79 98 87 59
72 94 95 96 96 99 100 101 103 101 91 104 85 63 102 99 95 93 53 60 58 86 99 71 104 98 109 119 110 110 110 72 105 95 87 101 79 77
68 62 61 65 70 80 93 96 95 95 95 96 97 99 89 71 94 95 80 86 89 118 70 107 77 79 106 99 114 116 105 106 112 80 103 91 85 99
65 60 55 54 57 62 69 71 80 90 91 74 91 91 93 94 95 98 85 69 90 120 84 113 98 92 85 105 102 109 100 113 98 114 81 78 70 73
57 56 58 51 50 56 60 63 66 71 83 86 87 89 91 58 95 86 81 63 95 88 103 120 103 116 103 93 103 105 106 107 101 114 97 97 93 96
50 53 48 51 50 54 58 57 59 59 65 75 81 84 87 89 90 92 71 89 70 96 97 93 59 110 98 103 109 101 100 98 102 111 96 109 105 112
48 48 47 49 50 52 56 56 55 55 59 62 65 74 81 82 84 89 91 90 87 87 95 111 93 75 91 90 82 83 99 93 96 90 93 96 96 97
45 45 45 48 50 53 55 53 53 54 55 55 55 56 60 80 81 84 87 89 87 87 86 95 92 108 114 84 102 100 99 102 97 83 83 81 81 79
44 44 39 45 48 51 52 51 50 52 52 54 55 50 49 48 77 73 79 82 87 85 82 78 75 79 112 64 93 85 91 95 95 90 79 78 76 74
40 37 35 41 39 41 45 47 49 49 50 49 48 50 50 49 50 72 67 75 84 85 85 82 85 86 84 82 84 88 89 92 93 87 76 75 69 69
36 31 29 29 33 31 35 42 45 46 45 43 45 46 45 47 48 51 67 69 71 85 85 85 86 73 71 81 81 81 86 85 91 87 73 73 73 68
33 31 29 28 28 29 33 37 41 43 44 46 44 39 37 39 42 45 47 65 66 72 86 84 85 80 77 77 69 62 66 78 86 83 80 77 71 68
29 28 23 28 27 28 28 29 30 33 35 34 35 34 34 36 36 38 44 48 62 66 76 82 81 79 78 76 76 81 74 79 76 78 77 76 71 68
25 25 27 27 27 31 25 24 24 25 26 27 27 27 28 30 32 37 42 46 61 62 68 76 79 78 75 78 80 74 71 75 75 75 72 74 72 67
22 22 22 22 21 21 22 23 20 21 21 22 24 27 28 29 31 34 39 43 45 60 62 74 78 78 75 74 77 73 70 70 75 70 71 71 72 69
16 17 18 18 14 16 17 16 16 17 19 21 28 24 26 27 29 30 33 37 38 59 59 67 76 77 73 75 40 41 73 67 49 70 69 71 75 73
13 12 12 11 9 10 11 11 12 13 16 17 19 20 21 21 27 23 28 31 32 44 56 62 74 76 73 76 67 67 67 66 67 67 67 68 72 72
Wind_Direction
268 290 271 281 269 271 282 269 275 263 270 252 255 251 256 246 252 243 250 241 240 242 243 242 238 243 240 242 235 241 246 244 246 249 251 248 249 252
286 285 285 267 280 280 273 271 275 260 245 263 267 241 257 241 240 242 246 245 243 243 239 241 247 236 236 239 238 242 246 244 245 248 248 246 250 247
288 277 288 285 281 273 278 270 267 261 268 264 264 253 254 246 248 240 241 244 245 244 241 242 238 240 245 242 241 244 243 248 244 250 248 251 253 248
289 272 283 281 279 277 272 269 270 266 265 261 252 250 252 243 240 252 237 241 242 243 241 242 241 242 243 246 241 243 244 244 247 247 246 255 254 254
288 284 280 279 276 274 270 269 257 254 259 258 269 239 246 248 253 243 246 240 240 245 243 241 241 242 241 245 249 243 246 244 249 247 249 257 246 257
278 276 276 272 272 271 269 268 267 266 264 263 261 243 247 239 245 244 245 245 249 243 243 242 240 239 237 242 242 247 246 247 247 247 251 250 254 251
277 275 275 274 267 265 262 264 258 262 261 259 262 258 258 251 247 246 255 244 247 242 250 241 240 242 240 238 241 243 245 246 246 244 244 251 252 255
278 272 270 267 265 263 262 260 261 259 261 254 249 250 251 249 246 242 243 256 251 247 247 247 238 238 241 239 241 242 246 241 249 249 250 252 244 248
280 279 275 271 269 265 260 258 257 255 254 252 251 251 243 236 243 241 236 234 241 242 257 244 244 240 236 242 238 239 244 246 247 245 251 253 256 253
282 279 276 273 269 266 263 261 257 254 252 251 248 247 245 244 242 240 234 223 242 236 243 242 244 245 242 244 241 239 244 245 246 246 248 249 249 254
283 280 277 270 266 263 261 260 258 255 250 249 247 244 242 250 241 234 236 251 231 232 236 238 243 240 246 247 243 241 241 241 246 245 248 251 253 257
282 277 267 267 263 261 261 259 257 256 254 250 247 245 243 241 240 240 247 237 251 230 231 234 251 243 245 246 245 241 246 243 243 246 249 250 251 254
282 278 263 262 262 258 258 258 258 256 255 253 253 247 243 241 240 233 236 234 233 236 230 235 235 238 243 243 242 244 248 245 243 244 246 249 252 254
285 280 268 259 257 257 256 255 255 255 255 254 254 253 250 241 237 235 235 233 231 230 236 229 231 235 238 245 235 234 231 239 244 242 246 248 250 253
285 282 280 263 256 254 254 255 255 254 254 253 253 254 253 249 240 239 234 234 230 227 241 252 255 251 238 247 230 239 229 233 239 243 241 244 245 250
287 287 286 269 264 259 252 253 254 255 254 255 255 255 251 248 245 238 237 233 229 227 227 228 231 229 228 229 230 231 228 228 236 241 236 241 243 245
286 284 282 282 266 259 251 249 254 257 260 261 258 254 253 250 246 243 235 233 228 225 225 225 225 230 238 227 226 229 229 228 233 237 233 239 243 242
284 282 278 277 273 261 254 252 254 258 259 258 257 253 250 247 247 244 240 229 226 224 223 223 224 223 226 224 253 247 242 228 233 236 239 239 239 239
290 286 264 274 273 270 268 263 259 258 258 258 257 254 248 244 245 239 235 231 223 221 220 221 221 221 222 221 224 227 227 230 227 230 234 234 235 233
286 281 279 278 276 268 275 270 266 262 260 258 260 252 246 244 237 233 231 228 220 219 217 217 219 219 220 220 224 224 223 228 228 230 232 231 232 231
289 288 281 279 280 279 275 272 269 263 256 247 240 237 236 233 230 229 228 226 226 216 213 215 216 217 217 222 226 224 251 239 229 224 227 227 230 230
299 295 292 292 283 269 267 268 264 255 246 240 263 235 234 230 229 228 225 225 225 214 211 210 214 216 216 220 226 234 226 222 245 224 226 223 225 228
342 326 317 307 294 277 271 266 260 253 239 235 234 231 230 229 263 218 217 219 219 212 209 209 210 215 214 219 220 217 224 218 221 226 226 225 224 228